This is the latest recevied weather packets stored in our database for station/object N2PUI. If no packets are shown the sender has not sent any weather packets the latest 10 day(s).
| Time | Temp. | Humidity | Pressure | Rain* | Wind** | Luminosity | Snow |
|---|---|---|---|---|---|---|---|
| 1777557688 | 7.78° C | 88% | 1009.2 hPa | 0 mm | - | 161 W/m² | - |
| 1777557385 | 7.78° C | 88% | 1009.1 hPa | 0 mm | - | 134 W/m² | - |
| 1777557081 | 7.78° C | 89% | 1009.3 hPa | 0 mm | - | 108 W/m² | - |
| 1777556776 | 7.78° C | 90% | 1009.3 hPa | 0 mm | - | 111 W/m² | - |
| 1777556474 | 7.78° C | 90% | 1009.2 hPa | 0 mm | - | 115 W/m² | - |
| 1777556173 | 7.78° C | 91% | 1008.7 hPa | 0 mm | - | 123 W/m² | - |
| 1777555869 | 7.78° C | 91% | 1008.9 hPa | 0 mm | - | 154 W/m² | - |
| 1777555565 | 7.78° C | 92% | 1009.1 hPa | 0 mm | - | 152 W/m² | - |
| 1777555262 | 7.22° C | 93% | 1009.1 hPa | 0 mm | - | 135 W/m² | - |
| 1777554958 | 7.22° C | 93% | 1008.9 hPa | 0 mm | - | 176 W/m² | - |
| 1777554655 | 7.22° C | 94% | 1009.3 hPa | 0 mm | - | 134 W/m² | - |
| 1777554351 | 7.22° C | 94% | 1009.1 hPa | 0 mm | - | 96 W/m² | - |
| 1777554049 | 7.22° C | 95% | 1009.3 hPa | 0 mm | - | 141 W/m² | - |
| 1777553744 | 6.67° C | 95% | 1008.9 hPa | 0 mm | - | 126 W/m² | - |
| 1777553442 | 6.67° C | 95% | 1009.1 hPa | 0 mm | - | 114 W/m² | - |
| 1777553138 | 7.22° C | 95% | 1008.9 hPa | 0 mm | - | 118 W/m² | - |
| 1777552832 | 6.67° C | 95% | 1009 hPa | 0 mm | - | 131 W/m² | - |
| 1777552528 | 6.67° C | 95% | 1009.1 hPa | 0 mm | - | 101 W/m² | - |
| 1777552224 | 6.67° C | 95% | 1009 hPa | 0 mm | - | 106 W/m² | - |
| 1777551921 | 6.67° C | 95% | 1009.1 hPa | 0 mm | - | 97 W/m² | - |
| 1777551619 | 6.67° C | 95% | 1009.1 hPa | 0 mm | - | 98 W/m² | - |
| 1777551317 | 6.67° C | 95% | 1009.1 hPa | 0 mm | - | 60 W/m² | - |
| 1777551013 | 6.67° C | 95% | 1009.2 hPa | 0 mm | - | 35 W/m² | - |
| 1777550710 | 6.67° C | 95% | 1009.3 hPa | 0 mm | - | 31 W/m² | - |
| 1777550406 | 6.67° C | 95% | 1009.3 hPa | 0 mm | - | 28 W/m² | - |
* Rain latest hour (hover to see other rain measurements)
** Current wind speed in m/s (hover to see current wind gust speed)